Flag for Thailand Weather past 2 weeks in Phuket, Thailand

Now
79 °F

Scattered clouds.


Feels Like: 82 °F
Forecast: 78 / 86 °F
Wind: 6 mph from Northeast

Location: Phuket Airport

Current Time: Dec 29, 2014 at 8:49:55 AM

Latest Report: Dec 29, 2014 at 8:30 AM


Visibility: N/A

Pressure: 29.92 "Hg

Humidity: 79%

Dew point: 72 °F

Location of PhuketLocation

Historic Weather in Phuket — Graph

°F

Phuket temperature yesterday

Maximum temperature yesterday: 88 °F (at 1:30 PM)
Minimum temperature yesterday: 75 °F (at 6:00 PM)
Average temperature yesterday: 81 °F

Past Weeks' High & Low Weather Summary

 TemperatureHumidityPressure
High90 °F (Dec 17, 12:00 PM)94% (Dec 17, 5:00 PM)29.95 "Hg (Dec 17, 5:00 PM)
Low75 °F (Dec 16, 7:00 AM)52% (Dec 17, 12:00 PM)29.71 "Hg (Dec 21, 4:00 PM)
Average81 °F74%29.84 "Hg
* Reported Dec 14 7:00 AM — Dec 29 7:30 AM, Phuket, Weather by CustomWeather, © 2014

Note: Actual official high and low records may vary slightly from our data, if they occured in-between our weather recording intervals... More about our weather records

Advertising

Phuket weather history for previous 24 hours

 ConditionsComfort  
Time TempWeatherWind HumidityBarometerVisibility
7:30 AM
Dec 29
75 °FBroken clouds.No wind89%29.89 "Hg5 mi
7:00 AM75 °FBroken clouds.No wind89%29.89 "Hg5 mi
6:30 AM77 °FPartly cloudy.3 mph83%29.89 "Hg5 mi
6:00 AM77 °FPartly cloudy.No wind83%29.86 "Hg5 mi
5:00 AM77 °FPartly cloudy.5 mph83%29.86 "Hg5 mi
4:00 AM77 °FPartly cloudy.8 mph83%29.83 "Hg5 mi
3:30 AM77 °FPartly cloudy.8 mph79%29.83 "Hg5 mi
3:00 AM77 °FPartly cloudy.12 mph79%29.83 "Hg5 mi
2:30 AM77 °FPartly cloudy.6 mph79%29.83 "Hg5 mi
2:00 AM77 °FPartly cloudy.7 mph83%29.86 "Hg5 mi
1:00 AM77 °FPartly cloudy.8 mph79%29.89 "Hg5 mi
12:30 AM79 °FPartly cloudy.8 mph74%29.89 "Hg5 mi
12:00 AM77 °FPartly cloudy.6 mph79%29.92 "Hg5 mi
11:30 PM
Dec 28
77 °FPartly cloudy.10 mph79%29.92 "Hg5 mi
11:00 PM79 °FPartly cloudy.9 mph74%29.92 "Hg5 mi
10:30 PM77 °FPartly cloudy.7 mph83%29.92 "Hg5 mi
10:00 PM77 °FPartly cloudy.8 mph83%29.92 "Hg5 mi
9:30 PM79 °FPartly cloudy.7 mph79%29.92 "Hg5 mi
9:00 PM79 °FPartly cloudy.6 mph79%29.92 "Hg5 mi
8:30 PM77 °FPartly cloudy.7 mph83%29.92 "Hg5 mi
8:00 PM77 °FPartly cloudy.5 mph83%29.92 "Hg5 mi
7:30 PM77 °FPartly cloudy.3 mph83%29.92 "Hg5 mi
7:00 PM77 °FPartly cloudy.3 mph83%29.89 "Hg5 mi
6:30 PM75 °FPartly cloudy.6 mph89%29.89 "Hg4 mi
6:00 PM75 °FHeavy rain. Broken clouds.18 mph89%29.89 "Hg1 mi
5:30 PM86 °FBroken clouds.5 mph62%29.83 "Hg6 mi
5:00 PM86 °FBroken clouds.7 mph59%29.83 "Hg6 mi
4:30 PM86 °FBroken clouds.8 mph59%29.80 "Hg6 mi
4:00 PM86 °FBroken clouds.9 mph59%29.80 "Hg6 mi
3:30 PM86 °FBroken clouds.6 mph66%29.80 "Hg6 mi
3:00 PM84 °FBroken clouds.7 mph66%29.80 "Hg6 mi
2:30 PM81 °FBroken clouds.12 mph79%29.80 "Hg5 mi
2:00 PM86 °FBroken clouds.8 mph62%29.83 "Hg6 mi
1:30 PM88 °FPartly sunny.10 mph62%29.83 "Hg6 mi
1:00 PM86 °FBroken clouds.13 mph62%29.86 "Hg6 mi
12:30 PM86 °FBroken clouds.10 mph62%29.86 "Hg6 mi
12:00 PM86 °FBroken clouds.12 mph62%29.89 "Hg6 mi
11:30 AM86 °FBroken clouds.10 mph66%29.92 "Hg6 mi
11:00 AM84 °FBroken clouds.9 mph66%29.92 "Hg6 mi
10:30 AM84 °FBroken clouds.9 mph66%29.92 "Hg6 mi
10:00 AM82 °FBroken clouds.9 mph70%29.92 "Hg6 mi
9:30 AM84 °FBroken clouds.9 mph66%29.92 "Hg6 mi
9:00 AM82 °FBroken clouds.10 mph70%29.89 "Hg6 mi
8:30 AM81 °FBroken clouds.7 mph74%29.89 "Hg6 mi
8:00 AM79 °FPartly sunny.8 mph79%29.89 "Hg6 mi
Weather by CustomWeather, © 2014

See weather overviewHow to use our weather pages